SCP
0 0 0 0 0 0 0 0 0 0 0 0 0 0 0 0 0 0 0 0 0 0 0 0 0 0 0 0 0 0 0 0 0 0 0 0 0 0 0 0 0 0 0
0 0 0 0 0 0 0 0 0 0 0 0 0 0 0 0 0 0 0 0 0 0 0 0 0 0 0 0 0 0 0 0 0 0 0 0 0 0 0 0 0 0 0
0 0 0 0 0 0 0 0 0 0 0 0 0 0 0 0 0 0 0 0 0 0 0 0 0 0 0 0 0 0 0 0 0 0 0 0 0 0 0 0 0 0 0
0 0 0 0 0 0 0 0 0 0 0 0 0 0 0 0 0 0 0 0 0 0 0 0 0 0 0 0 0 0 0 0 0 0 0 0 0 0 0 0 0 0 0
0 0 0 0 0 0 0 0 0 0 0 0 0 0 0 0 0 0 0 0 0 0 0 0 0 0 0 0 0 0 0 0 0 0 0 0 0 0 0 0 0 0 0
0 0 0 0 0 0 0 0 0 0 0 0 0 0 0 0 0 0 0 0 0 0 0 0 0 0 0 0 0 0 0 0 0 0 0 0 0 0 0 0 0 0 0
0 0 0 0 0 0 0 0 0 0 0 0 0 0 0 0 0 0 0 0 0 0 0 0 0 0 0 0 0 0 0 0 0 0 0 0 0 0 0 0 0 0 0
0 0 0 0 0 0 0 0 0 0 0 0 0 0 0 0 0 0 0 0 0 0 0 0 0 0 0 0 0 0 0 0 0 0 0 0 0 0 0 0 0 0 0
0 0 0 0 0 0 0 0 0 0 0 0 0 0 0 0 0 0 0 0 0 0 0 0 0 0 0 0 0 0 0 0 0 0 0 0 0 0 0 0 0 0 0
0 0 0 0 0 0 0 0 0 0 0 0 0 0 0 0 0 0 0 0 0 0 0 0 0 0 0 0 0 0 0 0 0 0 0 0 0 0 0 0 0 0 0
0 0 0 0 0 0 0 0 0 0 0 0 0 0 0 0 0 0 0 0 0 0 0 0 0 0 0 0 0 0 0 0 0 0 0 0 0 0 0 0 0 0 0
0 0 0 0 0 0 0 0 0 0 0 0 0 0 0 0 0 0 0 0 0 0 0 0 0 0 0 0 0 0 0 0 0 0 0 0 0 0 0 0 0 0 0
0 0 0 0 0 0 0 0 0 0 0 0 0 0 0 0 0 0 0 0 0 0 0 0 0 0 0 0 0 0 0 0 0 0 0 0 0 0 0 0 0 0 0
0 0 0 0 0 0 0 0 0 0 0 0 0 0 0 0 0 0 0 0 0 0 0 0 0 0 0 0 0 0 0 0 0 0 0 0 0 0 0 0 0 0 0
0 0 0 0 0 0 0 0 0 0 0 0 0 0 0 0 0 0 0 0 0 0 0 0 0 0 0 0 0 0 0 0 0 0 0 0 0 0 0 0 0 0 0
0 0 0 0 0 0 0 0 0 0 0 0 0 0 0 0 0 0 0 0 0 0 0 0 0 0 0 0 0 0 0 0 0 0 0 0 0 0 0 0 0 0 0
0 0 0 0 0 0 0 0 0 0 0 0 0 0 0 0 0 0 0 0 0 0 0 0 0 0 0 0 0 0 0 0 0 0 0 0 0 0 0 0 0 0 0
0 0 0 0 0 0 0 0 0 0 0 0 0 0 0 0 0 0 0 0 0 0 0 0 0 0 0 0 0 0 0 0 0 0 0 0 0 0 0 0 0 0 0
0 0 0 0 0 0 0 0 0 0 0 0 0 0 0 0 0 0 0 0 0 0 0 0 0 0 0 0 0 0 0 0 0 0 0 0 0 0 0 0 0 0 0
0 0 0 0 0 0 0 0 0 0 0 0 0 0 0 0 0 0 0 0 0 0 0 0 0 0 0 0 0 0 0 0 0 0 0 0 0 0 0 0 0 0 0
0 0 0 0 0 0 0 0 0 0 0 0 -0 0 0 0 0 0 0 0 0 0 0 0 0 0 0 0 0 0 0 0 0 0 0 0 0 0 0 0 0 0 0
0 0 0 0 0 0 0 0 0 0 0 0 0 0 0 0 0 0 0 0 0 0 0 0 0 0 0 0 0 0 0 0 0 0 0 0 0 0 0 0 0 0 0
0 0 0 0 0 0 0 0 0 0 0 0 0 0 0 0 0 0 0 0 0 0 0 0 0 0 0 0 0 0 0 0 0 0 0 0 0 0 0 0 0 0 0
0 0 0 0 0 0 0 0 0 0 0 0 0 0 0 0 0 0 0 0 0 0 0 0 0 0 0 0 0 0 0 0 0 0 0 0 0 0 0 0 0 0 0
0 0 0 0 0 0 0 0 0 0 0 0 0 0 0 0 0 0 0 0 0 0 0 0 0 0 0 0 0 0 0 0 0 0 0 0 0 0 0 0 0 0 0
0 0 0 0 0 0 0 0 0 0 0 0 0 0 0 0 0 0 0 0 0 0 0 0 0 0 0 0 0 0 0 0 0 0 0 0 0 0 0 0 0 0 0
Wind_Speed
1 1 2 2 3 5 6 6 7 8 8 8 8 8 9 9 9 10 10 9 9 9 9 10 10 11 11 11 11 11 11 11 11 11 11 11 11 11 11 9 8 9 11
2 1 2 2 3 4 6 6 7 7 8 8 9 8 9 9 9 9 9 9 9 9 9 9 10 10 10 10 10 10 10 10 10 10 10 10 11 11 10 9 8 8 11
2 1 1 2 3 4 5 6 6 7 7 8 8 8 8 8 9 9 9 9 8 8 9 9 10 10 10 10 9 9 10 10 9 8 6 7 9 9 9 9 10 10 10
2 2 2 4 3 4 4 5 5 6 7 7 7 7 8 9 8 8 8 8 8 8 9 9 9 9 9 9 9 9 9 9 8 5 4 5 6 8 8 8 9 9 9
3 3 3 5 4 4 4 4 4 4 5 6 7 7 8 8 8 8 8 8 7 8 8 9 9 9 9 9 9 9 8 8 7 3 5 5 5 7 7 7 8 8 7
3 3 4 5 5 5 5 4 4 4 4 5 5 6 7 7 7 7 7 7 7 7 7 8 8 8 8 8 8 8 8 7 5 4 4 4 5 6 7 7 7 6 6
3 3 4 6 5 5 5 5 4 4 4 4 4 5 6 7 7 7 6 6 6 6 7 7 8 8 8 8 8 8 7 5 3 4 4 4 5 6 6 6 6 6 6
3 3 3 5 5 5 5 5 5 4 4 4 4 4 5 5 6 6 6 6 6 6 6 7 7 7 7 7 8 7 7 3 4 4 4 4 5 4 5 6 5 5 5
4 3 3 3 3 4 5 5 5 4 3 4 4 4 4 4 5 6 6 5 5 5 6 6 6 6 6 7 7 7 6 1 3 3 3 3 5 3 4 4 4 4 4
4 4 4 3 3 2 2 4 4 5 3 3 3 4 3 3 4 5 5 5 5 5 5 6 6 6 6 6 7 6 5 2 3 4 2 3 4 3 3 3 3 3 3
4 4 4 3 2 2 1 2 2 3 3 2 2 3 2 3 3 4 4 5 5 5 5 5 6 5 5 6 6 6 3 2 3 2 2 4 3 2 3 3 3 2 2
3 3 3 3 2 2 1 1 1 1 1 1 1 1 1 2 2 2 4 4 4 4 4 5 5 5 4 4 5 4 2 2 3 2 3 4 2 2 2 2 2 2 1
1 2 3 3 2 2 1 1 1 1 1 1 1 1 0 1 1 2 2 3 4 4 3 4 4 3 3 2 2 2 2 1 1 2 3 3 1 0 1 1 1 1 1
1 2 2 2 2 2 1 1 1 1 1 1 2 2 0 0 1 1 1 2 2 2 2 2 2 3 3 3 3 3 3 1 1 1 3 3 1 0 0 0 1 1 1
1 2 2 2 2 1 1 1 1 1 1 1 1 1 1 0 0 1 1 1 2 2 2 2 3 3 3 3 2 2 2 2 2 1 2 3 2 1 1 1 0 1 1
1 2 2 2 2 1 1 1 1 1 1 1 2 2 2 1 0 1 1 1 1 2 2 2 3 2 2 2 2 2 2 2 1 1 1 2 3 3 2 1 1 1 0
1 1 2 1 1 1 0 1 1 1 1 1 1 1 2 2 1 0 1 1 1 1 2 2 3 2 2 2 2 2 2 2 2 1 1 0 1 2 2 2 2 2 2
2 1 2 1 1 1 0 0 1 1 1 1 1 1 1 2 1 0 0 0 0 1 2 2 2 2 2 2 2 2 2 2 2 1 1 1 0 0 1 2 2 2 2
2 2 2 2 1 1 0 1 1 1 1 1 1 1 1 2 1 0 0 0 0 0 1 2 2 2 2 2 2 2 1 2 2 2 1 1 0 0 1 1 1 2 3
2 2 2 2 1 1 0 0 1 1 1 1 1 1 1 1 1 0 0 0 0 0 1 1 2 2 2 2 2 2 2 2 2 2 2 1 1 1 1 2 1 1 2
3 3 2 2 2 1 1 0 0 0 0 0 1 2 1 1 1 0 1 0 0 0 0 1 1 2 1 1 2 1 1 2 2 2 2 2 2 2 2 2 2 2 1
3 3 3 3 2 1 1 0 1 1 1 1 1 1 2 1 1 0 1 1 0 1 1 1 1 1 1 1 1 1 2 2 2 2 2 2 3 2 2 2 2 3 2
2 3 2 3 2 2 1 0 0 1 1 1 1 1 2 1 1 1 1 1 1 1 1 1 2 2 2 2 1 1 1 2 1 2 3 3 3 3 3 3 4 4 3
2 2 2 2 2 2 1 1 1 1 1 1 1 1 1 1 1 1 2 2 2 2 2 2 2 2 3 3 2 1 1 1 2 2 3 3 3 4 4 3 4 4 3
2 2 2 2 2 2 1 1 1 1 1 1 1 1 1 1 1 1 2 2 2 2 2 2 2 3 3 3 2 1 1 1 2 3 3 3 3 4 4 4 4 4 4
1 2 2 2 2 2 2 1 2 2 2 2 2 2 2 1 1 1 2 2 2 2 2 3 3 3 3 3 3 2 2 2 3 3 4 4 4 3 4 4 4 4 4
Wind_Direction
24 343 2 14 92 101 111 121 124 124 125 126 127 129 127 124 120 116 115 118 119 117 116 115 113 110 107 103 101 100 101 100 100 97 95 95 96 96 94 94 98 92 88
328 315 39 32 83 98 109 119 124 123 125 128 130 132 131 129 124 120 117 118 119 118 118 117 115 114 112 108 106 104 102 103 101 97 96 97 94 94 93 87 78 86 89
24 41 100 59 80 94 106 109 119 123 125 128 131 133 130 128 128 127 123 121 118 117 117 117 115 114 114 111 109 108 106 103 100 101 114 108 100 94 97 94 88 89 89
41 50 67 62 74 85 103 103 114 124 125 127 128 129 129 126 126 128 127 124 121 119 116 116 114 113 116 115 113 110 106 103 100 114 119 102 105 98 100 99 96 92 90
50 47 56 59 65 77 93 99 99 114 120 124 124 127 128 127 125 125 125 124 122 121 118 115 113 113 116 120 118 115 110 106 105 128 106 104 103 102 103 103 99 95 93
58 49 56 54 67 76 80 91 89 101 111 119 124 125 129 127 124 123 120 119 119 120 121 120 117 118 115 119 121 119 115 115 140 117 110 107 101 102 106 107 105 103 100
59 48 54 50 60 74 76 75 84 88 102 105 115 125 129 127 125 120 118 113 116 121 123 122 122 122 122 118 121 122 117 122 136 113 111 104 93 99 109 107 107 106 102
51 45 52 49 48 59 63 66 69 74 95 103 105 112 127 130 127 122 118 116 113 118 122 122 121 121 122 122 118 117 117 136 132 120 116 108 89 96 110 107 102 103 102
54 47 48 51 47 53 54 53 57 56 81 99 98 99 100 126 133 132 127 124 119 118 126 128 126 127 126 125 121 114 113 117 144 121 116 104 93 103 112 108 103 102 108
51 41 36 35 35 46 67 55 52 50 61 79 89 88 86 109 138 139 135 128 126 122 130 134 131 129 126 125 123 118 118 171 143 126 120 99 98 111 113 115 113 108 108
41 31 24 26 31 30 57 62 58 56 56 77 101 95 120 155 155 156 140 128 132 129 130 136 138 132 129 125 119 121 152 161 134 119 103 81 108 117 116 120 122 111 103
22 20 17 16 23 33 46 71 68 81 96 88 104 151 173 155 146 147 128 129 133 130 134 133 137 143 153 144 131 150 162 155 141 131 92 68 108 129 126 129 133 130 96
6 10 10 10 13 20 31 57 58 58 48 54 65 37 183 154 149 164 153 155 159 160 161 148 160 162 164 146 150 158 142 153 143 129 100 69 64 187 179 173 158 173 176
357 351 355 3 8 15 13 37 70 84 55 50 40 27 2 176 173 168 170 174 177 171 171 173 173 162 166 160 161 158 155 167 156 126 93 75 50 354 337 260 135 158 158
322 322 330 344 354 5 9 6 65 87 71 73 56 23 351 274 203 174 168 175 182 173 175 176 172 163 171 169 168 168 169 174 166 148 115 81 37 349 325 311 234 211 186
288 298 313 324 333 359 18 19 34 60 68 62 54 35 6 339 237 194 169 179 182 183 184 187 170 168 171 177 174 177 184 182 184 181 157 109 65 29 15 30 13 345 351
310 308 308 306 332 353 26 32 30 42 79 72 60 40 30 3 351 200 163 169 182 179 178 180 172 175 167 176 183 186 189 197 191 186 170 161 126 70 26 10 4 359 347
336 350 1 6 9 356 33 93 65 26 46 57 47 42 40 20 6 298 137 136 334 179 176 172 182 177 173 179 189 192 193 188 193 187 176 167 181 220 87 25 360 345 333
334 340 7 20 28 12 13 113 97 56 32 31 43 37 40 32 19 335 2 31 22 183 177 174 184 186 180 182 189 193 202 198 194 188 190 189 195 289 264 93 349 341 332
350 355 5 12 22 31 55 118 134 114 40 21 16 20 19 32 6 316 284 67 75 158 177 172 179 174 184 189 188 193 204 206 202 201 212 212 226 253 265 265 241 253 339
14 12 11 1 9 18 20 341 202 250 308 324 3 15 360 2 4 323 305 205 142 185 220 185 170 157 165 181 190 194 205 206 219 218 228 229 227 235 256 265 264 265 254
5 3 1 356 357 355 344 322 281 269 269 290 358 6 350 345 337 286 278 258 204 210 200 185 173 170 157 181 201 207 210 201 201 221 223 230 242 236 241 249 254 256 268
354 351 349 347 343 342 331 304 138 194 235 289 335 335 340 328 296 251 245 241 219 216 209 211 204 193 190 190 220 228 218 224 246 196 219 227 236 243 241 242 247 252 257
340 341 345 349 347 346 323 241 206 215 237 274 293 294 303 305 276 251 240 237 226 221 212 212 222 219 200 199 197 245 284 295 244 234 210 218 236 244 242 242 244 248 257
340 342 344 359 355 346 324 276 228 228 244 262 262 271 276 284 287 266 243 234 232 233 225 220 231 230 219 216 211 212 241 248 256 258 251 235 239 241 245 247 248 249 251
343 346 348 348 343 336 318 294 258 236 236 241 249 253 257 262 262 264 254 237 234 238 231 227 231 232 232 229 229 218 222 224 234 243 254 249 252 250 249 246 246 247 249